Time,TemperatureF,DewpointF,PressureIn,WindDirection,WindDirectionDegrees,WindSpeedMPH,WindSpeedGustMPH,Humidity,HourlyPrecipIn,Conditions,Clouds,dailyrainin,SolarRadiationWatts/m^2,SoftwareType,DateUTC
2013-11-09 00:01:00,44.0,30.2,29.38,SE,135,4.0,7.0,58,0.00,,---,0.00,0.00,VWS V14.01,2013-11-09 05:01:00,
2013-11-09 00:02:00,44.0,30.2,29.38,SSW,202,6.0,7.0,58,0.00,,---,0.00,0.00,VWS V14.01,2013-11-09 05:02:00,
2013-11-09 00:07:00,44.0,29.8,29.38,SSW,202,9.0,11.0,57,0.00,,---,0.00,0.00,VWS V14.01,2013-11-09 05:07:00,
2013-11-09 00:12:00,44.0,29.3,29.38,SSW,202,3.0,6.0,56,0.00,,---,0.00,0.00,VWS V14.01,2013-11-09 05:12:00,
2013-11-09 00:17:00,45.0,30.3,29.38,SE,135,3.0,6.0,56,0.00,,---,0.00,0.00,VWS V14.01,2013-11-09 05:17:00,
2013-11-09 00:22:00,45.0,29.8,29.38,SE,135,4.0,10.0,55,0.00,,---,0.00,0.00,VWS V14.01,2013-11-09 05:22:00,
2013-11-09 00:27:00,45.0,29.8,29.38,SSE,157,2.0,4.0,55,0.00,,---,0.00,0.00,VWS V14.01,2013-11-09 05:27:00,
2013-11-09 00:32:00,45.0,29.4,29.38,South,180,10.0,10.0,54,0.00,,---,0.00,0.00,VWS V14.01,2013-11-09 05:32:00,
2013-11-09 00:37:00,45.0,29.4,29.38,South,180,3.0,8.0,54,0.00,,---,0.00,0.00,VWS V14.01,2013-11-09 05:37:00,
2013-11-09 00:42:00,45.0,28.9,29.38,SSE,157,7.0,8.0,53,0.00,,---,0.00,0.00,VWS V14.01,2013-11-09 05:42:00,
2013-11-09 00:47:00,45.0,28.9,29.38,South,180,4.0,10.0,53,0.00,,---,0.00,0.00,VWS V14.01,2013-11-09 05:47:00,
2013-11-09 00:52:00,45.0,28.9,29.37,South,180,4.0,9.0,53,0.00,,---,0.00,0.00,VWS V14.01,2013-11-09 05:52:00,
2013-11-09 00:57:00,45.0,28.9,29.37,South,180,2.0,12.0,53,0.00,,---,0.00,0.00,VWS V14.01,2013-11-09 05:57:00,
2013-11-09 01:02:00,45.0,28.9,29.37,South,180,4.0,11.0,53,0.00,,---,0.00,0.00,VWS V14.01,2013-11-09 06:02:00,
2013-11-09 01:07:00,45.0,28.9,29.37,South,180,5.0,9.0,53,0.00,,---,0.00,0.00,VWS V14.01,2013-11-09 06:07:00,
2013-11-09 01:12:00,45.0,28.5,29.36,South,180,9.0,11.0,52,0.00,,---,0.00,0.00,VWS V14.01,2013-11-09 06:12:00,
2013-11-09 01:17:00,45.0,28.5,29.36,South,180,8.0,9.0,52,0.00,,---,0.00,0.00,VWS V14.01,2013-11-09 06:17:00,
2013-11-09 01:22:00,45.0,28.5,29.35,SW,225,6.0,13.0,52,0.00,,---,0.00,0.00,VWS V14.01,2013-11-09 06:22:00,
2013-11-09 01:27:00,45.0,28.9,29.35,SSE,157,4.0,9.0,53,0.00,,---,0.00,0.00,VWS V14.01,2013-11-09 06:27:00,
2013-11-09 01:32:00,45.0,28.5,29.35,ESE,112,3.0,16.0,52,0.00,,---,0.00,0.00,VWS V14.01,2013-11-09 06:32:00,
2013-11-09 01:37:00,44.0,28.0,29.35,SE,135,8.0,10.0,53,0.00,,---,0.00,0.00,VWS V14.01,2013-11-09 06:37:00,
2013-11-09 01:42:00,44.0,28.0,29.35,SE,135,8.0,11.0,53,0.00,,---,0.00,0.00,VWS V14.01,2013-11-09 06:42:00,
2013-11-09 01:47:00,44.0,28.0,29.35,SE,135,4.0,11.0,53,0.00,,---,0.00,0.00,VWS V14.01,2013-11-09 06:47:00,
2013-11-09 01:52:00,44.0,28.0,29.35,SSW,202,4.0,18.0,53,0.00,,---,0.00,0.00,VWS V14.01,2013-11-09 06:52:00,
2013-11-09 01:57:00,44.0,28.0,29.35,South,180,10.0,12.0,53,0.00,,---,0.00,0.00,VWS V14.01,2013-11-09 06:57:00,
2013-11-09 02:02:00,44.0,28.0,29.34,SSE,157,13.0,16.0,53,0.00,,---,0.00,0.00,VWS V14.01,2013-11-09 07:02:00,
2013-11-09 02:07:00,44.0,28.4,29.34,SSE,157,3.0,10.0,54,0.00,,---,0.00,0.00,VWS V14.01,2013-11-09 07:07:00,
2013-11-09 02:12:00,44.0,28.4,29.33,South,180,7.0,12.0,54,0.00,,---,0.00,0.00,VWS V14.01,2013-11-09 07:12:00,
2013-11-09 02:17:00,44.0,28.9,29.33,SW,225,4.0,10.0,55,0.00,,---,0.00,0.00,VWS V14.01,2013-11-09 07:17:00,
2013-11-09 02:22:00,44.0,28.9,29.33,SSE,157,6.0,12.0,55,0.00,,---,0.00,0.00,VWS V14.01,2013-11-09 07:22:00,
2013-11-09 02:27:00,44.0,28.9,29.33,SE,135,1.0,9.0,55,0.00,,---,0.00,0.00,VWS V14.01,2013-11-09 07:27:00,
2013-11-09 02:32:00,44.0,28.9,29.33,SSE,157,4.0,10.0,55,0.00,,---,0.00,0.00,VWS V14.01,2013-11-09 07:32:00,
2013-11-09 02:37:00,44.0,28.9,29.33,SSE,157,5.0,7.0,55,0.00,,---,0.00,0.00,VWS V14.01,2013-11-09 07:37:00,
2013-11-09 02:42:00,44.0,28.4,29.33,SE,135,9.0,10.0,54,0.00,,---,0.00,0.00,VWS V14.01,2013-11-09 07:42:00,
2013-11-09 02:47:00,44.0,28.4,29.33,South,180,4.0,11.0,54,0.00,,---,0.00,0.00,VWS V14.01,2013-11-09 07:47:00,
2013-11-09 02:52:00,44.0,28.4,29.33,SSE,157,3.0,7.0,54,0.00,,---,0.00,0.00,VWS V14.01,2013-11-09 07:52:00,
2013-11-09 02:57:00,44.0,28.9,29.33,South,180,4.0,8.0,55,0.00,,---,0.00,0.00,VWS V14.01,2013-11-09 07:57:00,
2013-11-09 03:02:00,44.0,28.0,29.34,SE,135,5.0,12.0,53,0.00,,---,0.00,0.00,VWS V14.01,2013-11-09 08:02:00,
2013-11-09 03:07:00,44.0,28.4,29.34,SSE,157,5.0,5.0,54,0.00,,---,0.00,0.00,VWS V14.01,2013-11-09 08:07:00,
2013-11-09 03:12:00,44.0,28.0,29.33,South,180,4.0,9.0,53,0.00,,---,0.00,0.00,VWS V14.01,2013-11-09 08:12:00,
2013-11-09 03:17:00,44.0,28.0,29.33,South,180,3.0,12.0,53,0.00,,---,0.00,0.00,VWS V14.01,2013-11-09 08:17:00,
2013-11-09 03:22:00,44.0,28.0,29.33,SSW,202,5.0,10.0,53,0.00,,---,0.00,0.00,VWS V14.01,2013-11-09 08:22:00,
2013-11-09 03:27:00,44.0,28.4,29.33,SSW,202,5.0,7.0,54,0.00,,---,0.00,0.00,VWS V14.01,2013-11-09 08:27:00,
2013-11-09 03:32:00,44.0,28.0,29.33,SW,225,5.0,10.0,53,0.00,,---,0.00,0.00,VWS V14.01,2013-11-09 08:32:00,
2013-11-09 03:37:00,44.0,28.4,29.33,South,180,4.0,7.0,54,0.00,,---,0.00,0.00,VWS V14.01,2013-11-09 08:37:00,
2013-11-09 03:42:00,44.0,28.0,29.33,South,180,4.0,10.0,53,0.00,,---,0.00,0.00,VWS V14.01,2013-11-09 08:42:00,
2013-11-09 03:47:00,44.0,28.0,29.33,SSE,157,6.0,11.0,53,0.00,,---,0.00,0.00,VWS V14.01,2013-11-09 08:47:00,
2013-11-09 03:52:00,44.0,28.0,29.33,South,180,5.0,11.0,53,0.00,,---,0.00,0.00,VWS V14.01,2013-11-09 08:52:00,
2013-11-09 03:57:00,44.0,28.0,29.33,SSW,202,6.0,10.0,53,0.00,,---,0.00,0.00,VWS V14.01,2013-11-09 08:57:00,
2013-11-09 04:02:00,44.0,28.0,29.32,West,270,3.0,11.0,53,0.00,,---,0.00,0.00,VWS V14.01,2013-11-09 09:02:00,
2013-11-09 04:07:00,44.0,28.0,29.32,SSW,202,2.0,11.0,53,0.00,,---,0.00,0.00,VWS V14.01,2013-11-09 09:07:00,
2013-11-09 04:12:00,44.0,28.9,29.32,SW,225,1.0,12.0,55,0.00,,---,0.00,0.00,VWS V14.01,2013-11-09 09:12:00,
2013-11-09 04:17:00,43.0,27.5,29.32,SSW,202,4.0,10.0,54,0.00,,---,0.00,0.00,VWS V14.01,2013-11-09 09:17:00,
2013-11-09 04:22:00,43.0,27.5,29.32,SE,135,7.0,10.0,54,0.00,,---,0.00,0.00,VWS V14.01,2013-11-09 09:22:00,
2013-11-09 04:27:00,43.0,28.0,29.32,SSE,157,8.0,10.0,55,0.00,,---,0.00,0.00,VWS V14.01,2013-11-09 09:27:00,
2013-11-09 04:32:00,43.0,27.5,29.31,South,180,5.0,12.0,54,0.00,,---,0.00,0.00,VWS V14.01,2013-11-09 09:32:00,
2013-11-09 04:37:00,43.0,28.4,29.31,SSE,157,5.0,8.0,56,0.00,,---,0.00,0.00,VWS V14.01,2013-11-09 09:37:00,
2013-11-09 04:42:00,43.0,28.4,29.31,SSE,157,4.0,7.0,56,0.00,,---,0.00,0.00,VWS V14.01,2013-11-09 09:42:00,
2013-11-09 04:47:00,42.0,27.5,29.31,SW,225,10.0,11.0,56,0.00,,---,0.00,0.00,VWS V14.01,2013-11-09 09:47:00,
2013-11-09 04:52:00,42.0,27.9,29.31,SE,135,10.0,11.0,57,0.00,,---,0.00,0.00,VWS V14.01,2013-11-09 09:52:00,
2013-11-09 04:57:00,42.0,27.9,29.31,South,180,3.0,6.0,57,0.00,,---,0.00,0.00,VWS V14.01,2013-11-09 09:57:00,
2013-11-09 05:02:00,42.0,27.9,29.31,South,180,3.0,6.0,57,0.00,,---,0.00,0.00,VWS V14.01,2013-11-09 10:02:00,
2013-11-09 05:07:00,42.0,27.9,29.31,South,180,5.0,9.0,57,0.00,,---,0.00,0.00,VWS V14.01,2013-11-09 10:07:00,
2013-11-09 05:12:00,42.0,28.3,29.31,SSE,157,4.0,7.0,58,0.00,,---,0.00,0.00,VWS V14.01,2013-11-09 10:12:00,
2013-11-09 05:17:00,42.0,28.3,29.31,South,180,2.0,10.0,58,0.00,,---,0.00,0.00,VWS V14.01,2013-11-09 10:17:00,
2013-11-09 05:22:00,42.0,28.3,29.31,South,180,6.0,10.0,58,0.00,,---,0.00,0.00,VWS V14.01,2013-11-09 10:22:00,
2013-11-09 05:27:00,42.0,28.3,29.31,South,180,4.0,11.0,58,0.00,,---,0.00,0.00,VWS V14.01,2013-11-09 10:27:00,
2013-11-09 05:32:00,42.0,28.3,29.31,SSW,202,9.0,9.0,58,0.00,,---,0.00,0.00,VWS V14.01,2013-11-09 10:32:00,
2013-11-09 05:37:00,42.0,28.3,29.31,SSW,202,3.0,9.0,58,0.00,,---,0.00,0.00,VWS V14.01,2013-11-09 10:37:00,
2013-11-09 05:42:00,42.0,28.7,29.31,SE,135,6.0,9.0,59,0.00,,---,0.00,0.00,VWS V14.01,2013-11-09 10:42:00,
2013-11-09 05:47:00,42.0,28.3,29.31,South,180,8.0,10.0,58,0.00,,---,0.00,0.00,VWS V14.01,2013-11-09 10:47:00,
2013-11-09 05:52:00,42.0,28.7,29.31,SE,135,6.0,7.0,59,0.00,,---,0.00,0.00,VWS V14.01,2013-11-09 10:52:00,
2013-11-09 05:57:00,42.0,28.7,29.31,SE,135,8.0,9.0,59,0.00,,---,0.00,0.00,VWS V14.01,2013-11-09 10:57:00,
2013-11-09 06:02:00,42.0,28.7,29.30,South,180,4.0,5.0,59,0.00,,---,0.00,0.00,VWS V14.01,2013-11-09 11:02:00,
2013-11-09 06:07:00,43.0,29.7,29.30,South,180,3.0,10.0,59,0.00,,---,0.00,0.00,VWS V14.01,2013-11-09 11:07:00,
2013-11-09 06:12:00,43.0,29.7,29.30,SW,225,4.0,14.0,59,0.00,,---,0.00,0.00,VWS V14.01,2013-11-09 11:12:00,
2013-11-09 06:17:00,43.0,29.2,29.30,South,180,5.0,13.0,58,0.00,,---,0.00,0.00,VWS V14.01,2013-11-09 11:17:00,
2013-11-09 06:22:00,43.0,29.2,29.29,WSW,247,6.0,7.0,58,0.00,,---,0.00,0.00,VWS V14.01,2013-11-09 11:22:00,
2013-11-09 06:27:00,43.0,29.2,29.29,South,180,5.0,12.0,58,0.00,,---,0.00,0.00,VWS V14.01,2013-11-09 11:27:00,
2013-11-09 06:32:00,43.0,29.2,29.29,SE,135,9.0,9.0,58,0.00,,---,0.00,0.00,VWS V14.01,2013-11-09 11:32:00,
2013-11-09 06:37:00,43.0,29.7,29.29,SSE,157,10.0,10.0,59,0.00,,---,0.00,0.00,VWS V14.01,2013-11-09 11:37:00,
2013-11-09 06:42:00,43.0,29.7,29.29,SSW,202,10.0,11.0,59,0.00,,---,0.00,0.00,VWS V14.01,2013-11-09 11:42:00,
2013-11-09 06:47:00,43.0,29.2,29.29,SSE,157,3.0,13.0,58,0.00,,---,0.00,0.00,VWS V14.01,2013-11-09 11:47:00,
2013-11-09 06:52:00,43.0,29.7,29.29,SSW,202,7.0,10.0,59,0.00,,---,0.00,0.00,VWS V14.01,2013-11-09 11:52:00,
2013-11-09 06:57:00,43.0,29.7,29.29,SSW,202,1.0,10.0,59,0.00,,---,0.00,0.00,VWS V14.01,2013-11-09 11:57:00,
2013-11-09 07:02:00,43.0,29.7,29.29,SSE,157,5.0,10.0,59,0.00,,---,0.00,0.00,VWS V14.01,2013-11-09 12:02:00,
2013-11-09 07:07:00,43.0,30.1,29.29,SSE,157,3.0,10.0,60,0.00,,---,0.00,0.00,VWS V14.01,2013-11-09 12:07:00,
2013-11-09 07:12:00,43.0,30.1,29.29,SSE,157,4.0,10.0,60,0.00,,---,0.00,0.00,VWS V14.01,2013-11-09 12:12:00,
2013-11-09 07:17:00,43.0,30.1,29.29,SSW,202,4.0,10.0,60,0.00,,---,0.00,0.00,VWS V14.01,2013-11-09 12:17:00,
2013-11-09 07:22:00,43.0,30.5,29.29,SE,135,5.0,7.0,61,0.00,,---,0.00,0.00,VWS V14.01,2013-11-09 12:22:00,
2013-11-09 07:27:00,43.0,30.5,29.29,South,180,4.0,5.0,61,0.00,,---,0.00,0.00,VWS V14.01,2013-11-09 12:27:00,
2013-11-09 07:32:00,43.0,30.5,29.29,South,180,7.0,9.0,61,0.00,,---,0.00,0.00,VWS V14.01,2013-11-09 12:32:00,
2013-11-09 07:37:00,43.0,30.9,29.29,SE,135,4.0,7.0,62,0.00,,---,0.00,0.00,VWS V14.01,2013-11-09 12:37:00,
2013-11-09 07:42:00,43.0,30.9,29.29,SSE,157,9.0,9.0,62,0.00,,---,0.00,0.00,VWS V14.01,2013-11-09 12:42:00,
2013-11-09 07:47:00,43.0,30.9,29.29,South,180,3.0,7.0,62,0.00,,---,0.00,0.00,VWS V14.01,2013-11-09 12:47:00,
2013-11-09 07:52:00,43.0,30.9,29.29,SSW,202,0.0,5.0,62,0.00,,---,0.00,0.00,VWS V14.01,2013-11-09 12:52:00,
2013-11-09 07:57:00,43.0,30.9,29.29,SE,135,1.0,10.0,62,0.00,,---,0.00,0.00,VWS V14.01,2013-11-09 12:57:00,
2013-11-09 08:02:00,44.0,31.8,29.29,South,180,4.0,11.0,62,0.00,,---,0.00,0.00,VWS V14.01,2013-11-09 13:02:00,
2013-11-09 08:07:00,44.0,31.8,29.29,South,180,3.0,13.0,62,0.00,,---,0.00,0.00,VWS V14.01,2013-11-09 13:07:00,
2013-11-09 08:12:00,44.0,31.8,29.29,WSW,247,2.0,9.0,62,0.00,,---,0.00,0.00,VWS V14.01,2013-11-09 13:12:00,
2013-11-09 08:17:00,44.0,31.8,29.29,SW,225,4.0,6.0,62,0.00,,---,0.00,0.00,VWS V14.01,2013-11-09 13:17:00,
2013-11-09 08:22:00,44.0,31.8,29.29,SW,225,5.0,11.0,62,0.00,,---,0.00,0.00,VWS V14.01,2013-11-09 13:22:00,
2013-11-09 08:27:00,44.0,31.8,29.29,South,180,6.0,10.0,62,0.00,,---,0.00,0.00,VWS V14.01,2013-11-09 13:27:00,
2013-11-09 08:32:00,45.0,32.8,29.28,SE,135,8.0,9.0,62,0.00,,---,0.00,0.00,VWS V14.01,2013-11-09 13:32:00,
2013-11-09 08:37:00,45.0,33.2,29.28,SW,225,3.0,11.0,63,0.00,,---,0.00,0.00,VWS V14.01,2013-11-09 13:37:00,
2013-11-09 08:42:00,45.0,32.8,29.28,SSW,202,3.0,9.0,62,0.00,,---,0.00,0.00,VWS V14.01,2013-11-09 13:42:00,
2013-11-09 08:47:00,46.0,33.3,29.28,SSW,202,17.0,17.0,61,0.00,,---,0.00,0.00,VWS V14.01,2013-11-09 13:47:00,
2013-11-09 08:52:00,46.0,33.3,29.28,SSW,202,4.0,8.0,61,0.00,,---,0.00,0.00,VWS V14.01,2013-11-09 13:52:00,
2013-11-09 08:57:00,46.0,33.3,29.28,SSE,157,3.0,10.0,61,0.00,,---,0.00,0.00,VWS V14.01,2013-11-09 13:57:00,
2013-11-09 09:02:00,47.0,34.7,29.28,SSE,157,6.0,9.0,62,0.00,,---,0.00,0.00,VWS V14.01,2013-11-09 14:02:00,
2013-11-09 09:07:00,47.0,34.3,29.28,SSE,157,4.0,11.0,61,0.00,,---,0.00,0.00,VWS V14.01,2013-11-09 14:07:00,
2013-11-09 09:12:00,47.0,34.7,29.26,SSE,157,9.0,10.0,62,0.00,,---,0.00,0.00,VWS V14.01,2013-11-09 14:12:00,
2013-11-09 09:17:00,47.0,34.7,29.26,South,180,4.0,10.0,62,0.00,,---,0.00,0.00,VWS V14.01,2013-11-09 14:17:00,
2013-11-09 09:22:00,48.0,35.6,29.26,SSW,202,10.0,10.0,62,0.00,,---,0.00,0.00,VWS V14.01,2013-11-09 14:22:00,
2013-11-09 09:27:00,48.0,36.0,29.26,South,180,9.0,9.0,63,0.00,,---,0.00,0.00,VWS V14.01,2013-11-09 14:27:00,
2013-11-09 09:32:00,49.0,36.2,29.26,South,180,4.0,10.0,61,0.00,,---,0.00,0.00,VWS V14.01,2013-11-09 14:32:00,
2013-11-09 09:37:00,49.0,36.2,29.26,WSW,247,3.0,3.0,61,0.00,,---,0.00,0.00,VWS V14.01,2013-11-09 14:37:00,
2013-11-09 09:42:00,50.0,36.7,29.25,SSW,202,9.0,10.0,60,0.00,,---,0.00,0.00,VWS V14.01,2013-11-09 14:42:00,
2013-11-09 09:47:00,50.0,36.7,29.25,SSW,202,4.0,8.0,60,0.00,,---,0.00,0.00,VWS V14.01,2013-11-09 14:47:00,
2013-11-09 09:52:00,51.0,37.6,29.23,SSW,202,6.0,9.0,60,0.00,,---,0.00,0.00,VWS V14.01,2013-11-09 14:52:00,
2013-11-09 09:57:00,52.0,38.6,29.23,SSE,157,10.0,12.0,60,0.00,,---,0.00,0.00,VWS V14.01,2013-11-09 14:57:00,
2013-11-09 10:02:00,53.0,38.6,29.23,South,180,7.0,13.0,58,0.00,,---,0.00,0.00,VWS V14.01,2013-11-09 15:02:00,
2013-11-09 10:07:00,53.0,38.6,29.23,West,270,5.0,13.0,58,0.00,,---,0.00,0.00,VWS V14.01,2013-11-09 15:07:00,
2013-11-09 10:12:00,53.0,39.1,29.22,West,270,2.0,8.0,59,0.00,,---,0.00,0.00,VWS V14.01,2013-11-09 15:12:00,
2013-11-09 10:17:00,54.0,40.0,29.22,SSW,202,8.0,12.0,59,0.00,,---,0.00,0.00,VWS V14.01,2013-11-09 15:17:00,
2013-11-09 10:22:00,54.0,39.6,29.22,SSW,202,5.0,12.0,58,0.00,,---,0.00,0.00,VWS V14.01,2013-11-09 15:22:00,
2013-11-09 10:27:00,54.0,39.1,29.22,West,270,8.0,11.0,57,0.00,,---,0.00,0.00,VWS V14.01,2013-11-09 15:27:00,
2013-11-09 10:32:00,54.0,39.6,29.21,SW,225,8.0,11.0,58,0.00,,---,0.00,0.00,VWS V14.01,2013-11-09 15:32:00,
2013-11-09 10:37:00,54.0,39.1,29.21,SW,225,10.0,10.0,57,0.00,,---,0.00,0.00,VWS V14.01,2013-11-09 15:37:00,
2013-11-09 10:42:00,54.0,39.1,29.21,NW,315,5.0,8.0,57,0.00,,---,0.00,0.00,VWS V14.01,2013-11-09 15:42:00,
2013-11-09 10:47:00,54.0,38.7,29.21,West,270,1.0,8.0,56,0.00,,---,0.00,0.00,VWS V14.01,2013-11-09 15:47:00,
2013-11-09 10:52:00,55.0,40.1,29.22,SSW,202,7.0,10.0,57,0.00,,---,0.00,0.00,VWS V14.01,2013-11-09 15:52:00,
2013-11-09 10:57:00,55.0,39.2,29.22,SW,225,7.0,13.0,55,0.00,,---,0.00,0.00,VWS V14.01,2013-11-09 15:57:00,
2013-11-09 11:02:00,55.0,39.6,29.21,SSE,157,0.0,9.0,56,0.00,,---,0.00,0.00,VWS V14.01,2013-11-09 16:02:00,
2013-11-09 11:07:00,55.0,39.6,29.21,NW,315,0.0,10.0,56,0.00,,---,0.00,0.00,VWS V14.01,2013-11-09 16:07:00,
2013-11-09 11:12:00,56.0,40.1,29.21,NW,315,6.0,10.0,55,0.00,,---,0.00,0.00,VWS V14.01,2013-11-09 16:12:00,
2013-11-09 11:17:00,56.0,41.5,29.21,SW,225,7.0,16.0,58,0.00,,---,0.00,0.00,VWS V14.01,2013-11-09 16:17:00,
2013-11-09 11:22:00,57.0,40.5,29.20,NW,315,7.0,7.0,54,0.00,,---,0.00,0.00,VWS V14.01,2013-11-09 16:22:00,
2013-11-09 11:27:00,56.0,40.5,29.20,WSW,247,3.0,5.0,56,0.00,,---,0.00,0.00,VWS V14.01,2013-11-09 16:27:00,
2013-11-09 11:32:00,57.0,40.1,29.19,SW,225,10.0,13.0,53,0.00,,---,0.00,0.00,VWS V14.01,2013-11-09 16:32:00,
2013-11-09 11:37:00,57.0,41.0,29.19,SW,225,6.0,11.0,55,0.00,,---,0.00,0.00,VWS V14.01,2013-11-09 16:37:00,
2013-11-09 11:42:00,57.0,40.5,29.19,SSW,202,9.0,13.0,54,0.00,,---,0.00,0.00,VWS V14.01,2013-11-09 16:42:00,
2013-11-09 11:47:00,57.0,40.5,29.19,SSW,202,5.0,8.0,54,0.00,,---,0.00,0.00,VWS V14.01,2013-11-09 16:47:00,
2013-11-09 11:52:00,57.0,40.5,29.19,South,180,5.0,15.0,54,0.00,,---,0.00,0.00,VWS V14.01,2013-11-09 16:52:00,
2013-11-09 11:57:00,57.0,40.5,29.19,West,270,5.0,13.0,54,0.00,,---,0.00,0.00,VWS V14.01,2013-11-09 16:57:00,
2013-11-09 12:02:00,57.0,40.1,29.19,WNW,292,8.0,10.0,53,0.00,,---,0.00,0.00,VWS V14.01,2013-11-09 17:02:00,
2013-11-09 12:07:00,57.0,40.5,29.19,ESE,112,0.0,10.0,54,0.00,,---,0.00,0.00,VWS V14.01,2013-11-09 17:07:00,
2013-11-09 12:12:00,58.0,41.5,29.19,WSW,247,6.0,6.0,54,0.00,,---,0.00,0.00,VWS V14.01,2013-11-09 17:12:00,
2013-11-09 12:17:00,58.0,41.0,29.19,WNW,292,0.0,10.0,53,0.00,,---,0.00,0.00,VWS V14.01,2013-11-09 17:17:00,
2013-11-09 12:22:00,58.0,41.0,29.19,West,270,4.0,15.0,53,0.00,,---,0.00,0.00,VWS V14.01,2013-11-09 17:22:00,
2013-11-09 12:27:00,58.0,40.5,29.19,WNW,292,0.0,11.0,52,0.00,,---,0.00,0.00,VWS V14.01,2013-11-09 17:27:00,
2013-11-09 12:32:00,59.0,41.9,29.18,South,180,4.0,10.0,53,0.00,,---,0.00,0.00,VWS V14.01,2013-11-09 17:32:00,
2013-11-09 12:37:00,59.0,41.4,29.18,SSW,202,10.0,15.0,52,0.00,,---,0.00,0.00,VWS V14.01,2013-11-09 17:37:00,
2013-11-09 12:42:00,58.0,41.5,29.18,SSW,202,8.0,18.0,54,0.00,,---,0.00,0.00,VWS V14.01,2013-11-09 17:42:00,
2013-11-09 12:47:00,58.0,40.5,29.18,West,270,6.0,14.0,52,0.00,,---,0.00,0.00,VWS V14.01,2013-11-09 17:47:00,
2013-11-09 12:52:00,59.0,41.9,29.18,SW,225,3.0,14.0,53,0.00,,---,0.00,0.00,VWS V14.01,2013-11-09 17:52:00,
2013-11-09 12:57:00,59.0,41.9,29.18,South,180,10.0,14.0,53,0.00,,---,0.00,0.00,VWS V14.01,2013-11-09 17:57:00,
2013-11-09 13:02:00,59.0,41.4,29.17,South,180,10.0,14.0,52,0.00,,---,0.00,0.00,VWS V14.01,2013-11-09 18:02:00,
2013-11-09 13:07:00,59.0,40.9,29.17,West,270,3.0,14.0,51,0.00,,---,0.00,0.00,VWS V14.01,2013-11-09 18:07:00,
2013-11-09 13:12:00,59.0,40.9,29.17,SSW,202,12.0,12.0,51,0.00,,---,0.00,0.00,VWS V14.01,2013-11-09 18:12:00,
2013-11-09 13:17:00,59.0,41.4,29.17,WNW,292,1.0,8.0,52,0.00,,---,0.00,0.00,VWS V14.01,2013-11-09 18:17:00,
2013-11-09 13:22:00,60.0,41.8,29.16,South,180,6.0,7.0,51,0.00,,---,0.00,0.00,VWS V14.01,2013-11-09 18:22:00,
2013-11-09 13:27:00,60.0,42.3,29.16,South,180,8.0,13.0,52,0.00,,---,0.00,0.00,VWS V14.01,2013-11-09 18:27:00,
2013-11-09 13:32:00,60.0,42.3,29.16,SSW,202,6.0,12.0,52,0.00,,---,0.00,0.00,VWS V14.01,2013-11-09 18:32:00,
2013-11-09 13:37:00,59.0,40.9,29.16,SE,135,3.0,10.0,51,0.00,,---,0.00,0.00,VWS V14.01,2013-11-09 18:37:00,
2013-11-09 13:42:00,60.0,42.3,29.15,WSW,247,3.0,12.0,52,0.00,,---,0.00,0.00,VWS V14.01,2013-11-09 18:42:00,
2013-11-09 13:47:00,60.0,43.3,29.15,SW,225,6.0,6.0,54,0.00,,---,0.00,0.00,VWS V14.01,2013-11-09 18:47:00,
2013-11-09 13:52:00,60.0,42.3,29.15,WSW,247,0.0,12.0,52,0.00,,---,0.00,0.00,VWS V14.01,2013-11-09 18:52:00,
2013-11-09 13:57:00,60.0,42.3,29.15,SW,225,7.0,10.0,52,0.00,,---,0.00,0.00,VWS V14.01,2013-11-09 18:57:00,
2013-11-09 14:02:00,60.0,41.8,29.15,SW,225,3.0,15.0,51,0.00,,---,0.00,0.00,VWS V14.01,2013-11-09 19:02:00,
2013-11-09 14:07:00,60.0,42.3,29.15,South,180,2.0,6.0,52,0.00,,---,0.00,0.00,VWS V14.01,2013-11-09 19:07:00,
2013-11-09 14:12:00,60.0,42.3,29.15,SE,135,3.0,9.0,52,0.00,,---,0.00,0.00,VWS V14.01,2013-11-09 19:12:00,
2013-11-09 14:17:00,60.0,42.3,29.15,SSW,202,6.0,6.0,52,0.00,,---,0.00,0.00,VWS V14.01,2013-11-09 19:17:00,
2013-11-09 14:22:00,60.0,42.3,29.14,SSW,202,5.0,11.0,52,0.00,,---,0.00,0.00,VWS V14.01,2013-11-09 19:22:00,
2013-11-09 14:27:00,61.0,42.2,29.14,SSW,202,4.0,14.0,50,0.00,,---,0.00,0.00,VWS V14.01,2013-11-09 19:27:00,
2013-11-09 14:32:00,61.0,43.3,29.14,South,180,8.0,11.0,52,0.00,,---,0.00,0.00,VWS V14.01,2013-11-09 19:32:00,
2013-11-09 14:37:00,61.0,43.3,29.14,SSW,202,4.0,10.0,52,0.00,,---,0.00,0.00,VWS V14.01,2013-11-09 19:37:00,
2013-11-09 14:42:00,61.0,42.8,29.14,SW,225,4.0,10.0,51,0.00,,---,0.00,0.00,VWS V14.01,2013-11-09 19:42:00,
2013-11-09 14:47:00,61.0,42.2,29.14,West,270,5.0,12.0,50,0.00,,---,0.00,0.00,VWS V14.01,2013-11-09 19:47:00,
2013-11-09 14:52:00,61.0,42.8,29.14,WSW,247,7.0,12.0,51,0.00,,---,0.00,0.00,VWS V14.01,2013-11-09 19:52:00,
2013-11-09 14:57:00,61.0,42.8,29.14,SSW,202,3.0,10.0,51,0.00,,---,0.00,0.00,VWS V14.01,2013-11-09 19:57:00,
2013-11-09 15:02:00,61.0,42.8,29.14,SW,225,7.0,14.0,51,0.00,,---,0.00,0.00,VWS V14.01,2013-11-09 20:02:00,
2013-11-09 15:07:00,61.0,42.2,29.14,SSE,157,4.0,7.0,50,0.00,,---,0.00,0.00,VWS V14.01,2013-11-09 20:07:00,
2013-11-09 15:12:00,61.0,42.2,29.13,SE,135,5.0,10.0,50,0.00,,---,0.00,0.00,VWS V14.01,2013-11-09 20:12:00,
2013-11-09 15:17:00,61.0,42.8,29.13,SE,135,8.0,10.0,51,0.00,,---,0.00,0.00,VWS V14.01,2013-11-09 20:17:00,
2013-11-09 15:22:00,61.0,41.7,29.13,SSW,202,3.0,10.0,49,0.00,,---,0.00,0.00,VWS V14.01,2013-11-09 20:22:00,
2013-11-09 15:27:00,61.0,42.2,29.13,West,270,3.0,7.0,50,0.00,,---,0.00,0.00,VWS V14.01,2013-11-09 20:27:00,
2013-11-09 15:32:00,61.0,42.2,29.13,SSW,202,1.0,8.0,50,0.00,,---,0.00,0.00,VWS V14.01,2013-11-09 20:32:00,
2013-11-09 15:37:00,61.0,42.2,29.13,SSW,202,3.0,12.0,50,0.00,,---,0.00,0.00,VWS V14.01,2013-11-09 20:37:00,
2013-11-09 15:42:00,61.0,42.2,29.13,South,180,4.0,9.0,50,0.00,,---,0.00,0.00,VWS V14.01,2013-11-09 20:42:00,
2013-11-09 15:47:00,61.0,42.2,29.13,SE,135,5.0,11.0,50,0.00,,---,0.00,0.00,VWS V14.01,2013-11-09 20:47:00,
2013-11-09 15:52:00,61.0,41.7,29.13,South,180,9.0,10.0,49,0.00,,---,0.00,0.00,VWS V14.01,2013-11-09 20:52:00,
2013-11-09 15:57:00,61.0,42.2,29.13,South,180,6.0,7.0,50,0.00,,---,0.00,0.00,VWS V14.01,2013-11-09 20:57:00,
2013-11-09 16:02:00,61.0,41.7,29.14,East,90,0.0,7.0,49,0.00,,---,0.00,0.00,VWS V14.01,2013-11-09 21:02:00,
2013-11-09 16:07:00,61.0,42.2,29.14,WSW,247,2.0,6.0,50,0.00,,---,0.00,0.00,VWS V14.01,2013-11-09 21:07:00,
2013-11-09 16:12:00,61.0,42.2,29.15,SSE,157,3.0,9.0,50,0.00,,---,0.00,0.00,VWS V14.01,2013-11-09 21:12:00,
2013-11-09 16:17:00,60.0,41.3,29.15,South,180,3.0,6.0,50,0.00,,---,0.00,0.00,VWS V14.01,2013-11-09 21:17:00,
2013-11-09 16:22:00,60.0,41.8,29.15,SSE,157,0.0,7.0,51,0.00,,---,0.00,0.00,VWS V14.01,2013-11-09 21:22:00,
2013-11-09 16:27:00,60.0,41.8,29.15,SW,225,0.0,11.0,51,0.00,,---,0.00,0.00,VWS V14.01,2013-11-09 21:27:00,
2013-11-09 16:32:00,60.0,42.3,29.16,SW,225,0.0,4.0,52,0.00,,---,0.00,0.00,VWS V14.01,2013-11-09 21:32:00,
2013-11-09 16:37:00,59.0,40.9,29.16,SSW,202,5.0,12.0,51,0.00,,---,0.00,0.00,VWS V14.01,2013-11-09 21:37:00,
2013-11-09 16:42:00,59.0,40.9,29.16,West,270,3.0,3.0,51,0.00,,---,0.00,0.00,VWS V14.01,2013-11-09 21:42:00,
2013-11-09 16:47:00,59.0,40.4,29.16,West,270,0.0,10.0,50,0.00,,---,0.00,0.00,VWS V14.01,2013-11-09 21:47:00,
2013-11-09 16:52:00,59.0,40.4,29.17,SW,225,4.0,7.0,50,0.00,,---,0.00,0.00,VWS V14.01,2013-11-09 21:52:00,
2013-11-09 16:57:00,59.0,40.4,29.17,South,180,4.0,6.0,50,0.00,,---,0.00,0.00,VWS V14.01,2013-11-09 21:57:00,
2013-11-09 17:02:00,58.0,40.0,29.17,WSW,247,3.0,4.0,51,0.00,,---,0.00,0.00,VWS V14.01,2013-11-09 22:02:00,
2013-11-09 17:07:00,58.0,40.0,29.17,SW,225,4.0,10.0,51,0.00,,---,0.00,0.00,VWS V14.01,2013-11-09 22:07:00,
2013-11-09 17:12:00,58.0,40.0,29.18,SSW,202,0.0,4.0,51,0.00,,---,0.00,0.00,VWS V14.01,2013-11-09 22:12:00,
2013-11-09 17:17:00,58.0,41.0,29.18,SSW,202,0.0,4.0,53,0.00,,---,0.00,0.00,VWS V14.01,2013-11-09 22:17:00,
2013-11-09 17:22:00,57.0,40.1,29.19,North,360,0.0,7.0,53,0.00,,---,0.00,0.00,VWS V14.01,2013-11-09 22:22:00,
2013-11-09 17:27:00,57.0,40.1,29.19,SW,225,0.0,3.0,53,0.00,,---,0.00,0.00,VWS V14.01,2013-11-09 22:27:00,
2013-11-09 17:32:00,57.0,40.5,29.19,WNW,292,0.0,5.0,54,0.00,,---,0.00,0.00,VWS V14.01,2013-11-09 22:32:00,
2013-11-09 17:37:00,57.0,40.5,29.19,WSW,247,3.0,4.0,54,0.00,,---,0.00,0.00,VWS V14.01,2013-11-09 22:37:00,
2013-11-09 17:42:00,56.0,40.1,29.19,WNW,292,0.0,3.0,55,0.00,,---,0.00,0.00,VWS V14.01,2013-11-09 22:42:00,
2013-11-09 17:47:00,56.0,40.5,29.19,WSW,247,0.0,0.0,56,0.00,,---,0.00,0.00,VWS V14.01,2013-11-09 22:47:00,
2013-11-09 17:52:00,56.0,41.0,29.20,SSE,157,0.0,3.0,57,0.00,,---,0.00,0.00,VWS V14.01,2013-11-09 22:52:00,
2013-11-09 17:57:00,55.0,40.5,29.20,WNW,292,3.0,3.0,58,0.00,,---,0.00,0.00,VWS V14.01,2013-11-09 22:57:00,
2013-11-09 18:02:00,56.0,41.5,29.20,West,270,3.0,4.0,58,0.00,,---,0.00,0.00,VWS V14.01,2013-11-09 23:02:00,
2013-11-09 18:07:00,55.0,41.0,29.20,SSW,202,0.0,3.0,59,0.00,,---,0.00,0.00,VWS V14.01,2013-11-09 23:07:00,
2013-11-09 18:13:00,55.0,41.0,29.21,WSW,247,0.0,1.0,59,0.00,,---,0.00,0.00,VWS V14.01,2013-11-09 23:13:00,
2013-11-09 18:18:00,55.0,41.4,29.21,SSW,202,2.0,3.0,60,0.00,,---,0.00,0.00,VWS V14.01,2013-11-09 23:18:00,
2013-11-09 18:23:00,55.0,41.8,29.21,SSW,202,6.0,6.0,61,0.00,,---,0.00,0.00,VWS V14.01,2013-11-09 23:23:00,
2013-11-09 18:28:00,54.0,40.9,29.21,SW,225,1.0,3.0,61,0.00,,---,0.00,0.00,VWS V14.01,2013-11-09 23:28:00,
2013-11-09 18:33:00,54.0,41.7,29.22,South,180,0.0,6.0,63,0.00,,---,0.00,0.00,VWS V14.01,2013-11-09 23:33:00,
2013-11-09 18:38:00,53.0,40.8,29.22,SW,225,3.0,3.0,63,0.00,,---,0.00,0.00,VWS V14.01,2013-11-09 23:38:00,
2013-11-09 18:43:00,53.0,40.8,29.22,WSW,247,1.0,4.0,63,0.00,,---,0.00,0.00,VWS V14.01,2013-11-09 23:43:00,
2013-11-09 18:48:00,53.0,40.8,29.22,SE,135,1.0,4.0,63,0.00,,---,0.00,0.00,VWS V14.01,2013-11-09 23:48:00,
2013-11-09 18:53:00,53.0,41.2,29.23,WSW,247,0.0,0.0,64,0.00,,---,0.00,0.00,VWS V14.01,2013-11-09 23:53:00,
2013-11-09 18:58:00,53.0,41.2,29.23,West,270,0.0,3.0,64,0.00,,---,0.00,0.00,VWS V14.01,2013-11-09 23:58:00,
2013-11-09 19:03:00,53.0,41.2,29.23,SSE,157,2.0,2.0,64,0.00,,---,0.00,0.00,VWS V14.01,2013-11-10 00:03:00,
2013-11-09 19:08:00,53.0,41.6,29.23,SE,135,0.0,2.0,65,0.00,,---,0.00,0.00,VWS V14.01,2013-11-10 00:08:00,
2013-11-09 19:13:00,52.0,41.0,29.24,SSW,202,2.0,4.0,66,0.00,,---,0.00,0.00,VWS V14.01,2013-11-10 00:13:00,
2013-11-09 19:18:00,52.0,41.0,29.24,West,270,0.0,3.0,66,0.00,,---,0.00,0.00,VWS V14.01,2013-11-10 00:18:00,
2013-11-09 19:23:00,52.0,41.4,29.24,WSW,247,0.0,5.0,67,0.00,,---,0.00,0.00,VWS V14.01,2013-11-10 00:23:00,
2013-11-09 19:28:00,52.0,41.4,29.24,NE,45,0.0,1.0,67,0.00,,---,0.00,0.00,VWS V14.01,2013-11-10 00:28:00,
2013-11-09 19:33:00,52.0,41.8,29.25,WSW,247,0.0,6.0,68,0.00,,---,0.00,0.00,VWS V14.01,2013-11-10 00:33:00,
2013-11-09 19:38:00,52.0,41.4,29.25,SW,225,0.0,3.0,67,0.00,,---,0.00,0.00,VWS V14.01,2013-11-10 00:38:00,
2013-11-09 19:43:00,52.0,41.8,29.25,WNW,292,2.0,3.0,68,0.00,,---,0.00,0.00,VWS V14.01,2013-11-10 00:43:00,
2013-11-09 19:48:00,51.0,40.8,29.25,SSW,202,0.0,3.0,68,0.00,,---,0.00,0.00,VWS V14.01,2013-11-10 00:48:00,
2013-11-09 19:53:00,51.0,41.2,29.26,NW,315,0.0,2.0,69,0.00,,---,0.00,0.00,VWS V14.01,2013-11-10 00:53:00,
2013-11-09 19:58:00,51.0,41.2,29.26,WSW,247,2.0,5.0,69,0.00,,---,0.00,0.00,VWS V14.01,2013-11-10 00:58:00,
2013-11-09 20:03:00,51.0,41.2,29.26,SW,225,0.0,2.0,69,0.00,,---,0.00,0.00,VWS V14.01,2013-11-10 01:03:00,
2013-11-09 20:08:00,51.0,41.6,29.26,SW,225,0.0,3.0,70,0.00,,---,0.00,0.00,VWS V14.01,2013-11-10 01:08:00,
2013-11-09 20:13:00,51.0,41.6,29.26,SW,225,0.0,2.0,70,0.00,,---,0.00,0.00,VWS V14.01,2013-11-10 01:13:00,
2013-11-09 20:18:00,50.0,40.6,29.26,West,270,0.0,4.0,70,0.00,,---,0.00,0.00,VWS V14.01,2013-11-10 01:18:00,
2013-11-09 20:23:00,50.0,41.0,29.27,SW,225,1.0,1.0,71,0.00,,---,0.00,0.00,VWS V14.01,2013-11-10 01:23:00,
2013-11-09 20:28:00,50.0,41.0,29.27,East,90,1.0,1.0,71,0.00,,---,0.00,0.00,VWS V14.01,2013-11-10 01:28:00,
2013-11-09 20:33:00,50.0,41.3,29.27,SSW,202,2.0,3.0,72,0.00,,---,0.00,0.00,VWS V14.01,2013-11-10 01:33:00,
2013-11-09 20:38:00,50.0,41.3,29.27,West,270,0.0,0.0,72,0.00,,---,0.00,0.00,VWS V14.01,2013-11-10 01:38:00,
2013-11-09 20:43:00,50.0,41.3,29.28,WSW,247,1.0,4.0,72,0.00,,---,0.00,0.00,VWS V14.01,2013-11-10 01:43:00,
2013-11-09 20:48:00,50.0,41.3,29.28,NNW,337,0.0,0.0,72,0.00,,---,0.00,0.00,VWS V14.01,2013-11-10 01:48:00,
2013-11-09 20:53:00,50.0,41.3,29.28,South,180,1.0,5.0,72,0.00,,---,0.00,0.00,VWS V14.01,2013-11-10 01:53:00,
2013-11-09 20:58:00,50.0,41.3,29.28,SSW,202,0.0,1.0,72,0.00,,---,0.00,0.00,VWS V14.01,2013-11-10 01:58:00,
2013-11-09 21:03:00,50.0,41.3,29.28,West,270,0.0,0.0,72,0.00,,---,0.00,0.00,VWS V14.01,2013-11-10 02:03:00,
2013-11-09 21:08:00,49.0,40.4,29.28,West,270,0.0,0.0,72,0.00,,---,0.00,0.00,VWS V14.01,2013-11-10 02:08:00,
2013-11-09 21:13:00,49.0,40.7,29.29,SSW,202,4.0,4.0,73,0.00,,---,0.00,0.00,VWS V14.01,2013-11-10 02:13:00,
2013-11-09 21:18:00,49.0,40.7,29.29,WSW,247,0.0,4.0,73,0.00,,---,0.00,0.00,VWS V14.01,2013-11-10 02:18:00,
2013-11-09 21:23:00,49.0,40.4,29.29,South,180,0.0,4.0,72,0.00,,---,0.00,0.00,VWS V14.01,2013-11-10 02:23:00,
2013-11-09 21:28:00,49.0,40.4,29.29,WNW,292,0.0,6.0,72,0.00,,---,0.00,0.00,VWS V14.01,2013-11-10 02:28:00,
2013-11-09 21:33:00,49.0,40.4,29.29,West,270,0.0,3.0,72,0.00,,---,0.00,0.00,VWS V14.01,2013-11-10 02:33:00,
2013-11-09 21:38:00,48.0,39.4,29.29,SW,225,0.0,0.0,72,0.00,,---,0.00,0.00,VWS V14.01,2013-11-10 02:38:00,
2013-11-09 21:43:00,48.0,39.4,29.29,WSW,247,0.0,0.0,72,0.00,,---,0.00,0.00,VWS V14.01,2013-11-10 02:43:00,
2013-11-09 21:48:00,48.0,39.8,29.29,NNW,337,0.0,0.0,73,0.00,,---,0.00,0.00,VWS V14.01,2013-11-10 02:48:00,
2013-11-09 21:53:00,48.0,39.8,29.30,West,270,0.0,1.0,73,0.00,,---,0.00,0.00,VWS V14.01,2013-11-10 02:53:00,
2013-11-09 21:58:00,47.0,38.5,29.30,West,270,1.0,3.0,72,0.00,,---,0.00,0.00,VWS V14.01,2013-11-10 02:58:00,
2013-11-09 22:03:00,47.0,38.8,29.30,WNW,292,3.0,6.0,73,0.00,,---,0.00,0.00,VWS V14.01,2013-11-10 03:03:00,
2013-11-09 22:08:00,47.0,39.2,29.30,West,270,0.0,2.0,74,0.00,,---,0.00,0.00,VWS V14.01,2013-11-10 03:08:00,
2013-11-09 22:13:00,47.0,39.2,29.31,WSW,247,0.0,2.0,74,0.00,,---,0.00,0.00,VWS V14.01,2013-11-10 03:13:00,
2013-11-09 22:18:00,47.0,39.5,29.31,NW,315,1.0,3.0,75,0.00,,---,0.00,0.00,VWS V14.01,2013-11-10 03:18:00,
2013-11-09 22:23:00,46.0,38.9,29.31,SW,225,3.0,4.0,76,0.00,,---,0.00,0.00,VWS V14.01,2013-11-10 03:23:00,
2013-11-09 22:28:00,47.0,39.5,29.31,SW,225,1.0,1.0,75,0.00,,---,0.00,0.00,VWS V14.01,2013-11-10 03:28:00,
2013-11-09 22:33:00,47.0,39.5,29.31,SSW,202,0.0,0.0,75,0.00,,---,0.00,0.00,VWS V14.01,2013-11-10 03:33:00,
2013-11-09 22:38:00,47.0,39.5,29.31,West,270,0.0,3.0,75,0.00,,---,0.00,0.00,VWS V14.01,2013-11-10 03:38:00,
2013-11-09 22:43:00,47.0,39.2,29.31,WNW,292,0.0,0.0,74,0.00,,---,0.00,0.00,VWS V14.01,2013-11-10 03:43:00,
2013-11-09 22:48:00,47.0,39.2,29.31,North,360,0.0,2.0,74,0.00,,---,0.00,0.00,VWS V14.01,2013-11-10 03:48:00,
2013-11-09 22:53:00,46.0,38.5,29.32,West,270,0.0,0.0,75,0.00,,---,0.00,0.00,VWS V14.01,2013-11-10 03:53:00,
2013-11-09 22:58:00,46.0,38.9,29.32,West,270,0.0,1.0,76,0.00,,---,0.00,0.00,VWS V14.01,2013-11-10 03:58:00,
2013-11-09 23:03:00,46.0,38.9,29.32,WSW,247,0.0,0.0,76,0.00,,---,0.00,0.00,VWS V14.01,2013-11-10 04:03:00,
2013-11-09 23:08:00,45.0,38.2,29.32,SSE,157,0.0,3.0,77,0.00,,---,0.00,0.00,VWS V14.01,2013-11-10 04:08:00,
2013-11-09 23:13:00,45.0,38.2,29.33,WSW,247,0.0,7.0,77,0.00,,---,0.00,0.00,VWS V14.01,2013-11-10 04:13:00,
2013-11-09 23:18:00,45.0,38.2,29.33,SW,225,0.0,3.0,77,0.00,,---,0.00,0.00,VWS V14.01,2013-11-10 04:18:00,
2013-11-09 23:23:00,46.0,38.9,29.33,South,180,0.0,3.0,76,0.00,,---,0.00,0.00,VWS V14.01,2013-11-10 04:23:00,
2013-11-09 23:28:00,46.0,38.9,29.33,South,180,0.0,5.0,76,0.00,,---,0.00,0.00,VWS V14.01,2013-11-10 04:28:00,
2013-11-09 23:33:00,45.0,37.9,29.33,WNW,292,0.0,4.0,76,0.00,,---,0.00,0.00,VWS V14.01,2013-11-10 04:33:00,
2013-11-09 23:38:00,45.0,38.2,29.33,WNW,292,0.0,0.0,77,0.00,,---,0.00,0.00,VWS V14.01,2013-11-10 04:38:00,
2013-11-09 23:43:00,45.0,37.9,29.34,WNW,292,0.0,2.0,76,0.00,,---,0.00,0.00,VWS V14.01,2013-11-10 04:43:00,
2013-11-09 23:48:00,45.0,37.9,29.34,WNW,292,0.0,0.0,76,0.00,,---,0.00,0.00,VWS V14.01,2013-11-10 04:48:00,
2013-11-09 23:53:00,45.0,37.9,29.34,SW,225,4.0,5.0,76,0.00,,---,0.00,0.00,VWS V14.01,2013-11-10 04:53:00,
2013-11-09 23:58:00,45.0,37.9,29.34,NW,315,1.0,4.0,76,0.00,,---,0.00,0.00,VWS V14.01,2013-11-10 04:58:00,